Overview Statistics Trail Chart Weather Telemetry Raw packets
 

This is the latest recevied weather packets stored in our database for station/object N3TJJ-2. If no packets are shown the sender has not sent any weather packets the latest 10 day(s).

<< 48 49 50 51 52 53 54 >>
Time Temp. Humidity Pressure Rain* Wind** Luminosity Snow
1788208248 27.22° C 72% 1020 hPa 0 mm - - -
1788207888 27.78° C 71% 1020 hPa 0 mm - - -
1788207532 27.78° C 72% 1020 hPa 0 mm - - -
1788207171 27.78° C 70% 1020.1 hPa 0 mm - - -
1788206875 27.22° C 72% 1020.2 hPa 0 mm - - -
1788206449 26.67° C 72% 1020.3 hPa 0 mm - - -
1788206086 26.67° C 72% 1020.2 hPa 0 mm - - -
1788205797 26.67° C 72% 1020.4 hPa 0 mm - - -
1788205374 26.67° C 71% 1020.5 hPa 0 mm - - -
1788205008 27.22° C 71% 1020.5 hPa 0 mm - - -
1788204648 27.22° C 72% 1020.7 hPa 0 mm - - -
1788204300 26.67° C 71% 1020.7 hPa 0 mm - - -
1788203934 27.22° C 72% 1020.8 hPa 0 mm - - -
1788203574 27.22° C 72% 1020.7 hPa 0 mm - - -
1788203209 27.22° C 71% 1020.7 hPa 0 mm - - -
1788202849 27.78° C 72% 1020.8 hPa 0 mm - - -
1788202486 27.22° C 73% 1020.8 hPa 0 mm - - -
1788202131 26.67° C 74% 1021 hPa 0 mm - - -
1788201770 26.67° C 75% 1021 hPa 0 mm - - -
1788201406 26.67° C 74% 1021.1 hPa 0 mm - - -
1788201050 26.11° C 73% 1021.2 hPa 0 mm - - -
1788200685 26.67° C 73% 1021.2 hPa 0 mm - - -
1788200334 27.22° C 71% 1021.1 hPa 0 mm - - -
1788199979 27.22° C 72% 1021.1 hPa 0 mm - - -
1788199642 26.11° C 74% 1021.1 hPa 0 mm - - -

* Rain latest hour (hover to see other rain measurements)
** Current wind speed in m/s (hover to see current wind gust speed)